Smith Lake Weather Center

Moon Phase Calendar



Smith Lake Water Level
Online Cameras

 


      

Current Conditions in Good Hope
9/27/2022 11:04:43 PM

51°F
Feels Like 49
Clear
Humidity
54%
Pressure
30.18"
Wind
5.6 mph (NNE)
Dew Point
35°F
UV Index
0/10 (Low)
Visibility
6 mi

Hourly Forecast

Date & Time Tue, Sep 27
11:00 PM
Wed, Sep 28
12:00 AM
Wed, Sep 28
1:00 AM
Wed, Sep 28
2:00 AM
Wed, Sep 28
3:00 AM
Wed, Sep 28
4:00 AM
Wed, Sep 28
5:00 AM
Wed, Sep 28
6:00 AM
Wed, Sep 28
7:00 AM
Wed, Sep 28
8:00 AM
Wed, Sep 28
9:00 AM
Wed, Sep 28
10:00 AM
Wed, Sep 28
11:00 AM
Wed, Sep 28
12:00 PM
Wed, Sep 28
1:00 PM
Wed, Sep 28
2:00 PM
Wed, Sep 28
3:00 PM
Wed, Sep 28
4:00 PM
Wed, Sep 28
5:00 PM
Wed, Sep 28
6:00 PM
Wed, Sep 28
7:00 PM
Wed, Sep 28
8:00 PM
Wed, Sep 28
9:00 PM
Wed, Sep 28
10:00 PM
Wed, Sep 28
11:00 PM
Thu, Sep 29
12:00 AM
Thu, Sep 29
1:00 AM
Thu, Sep 29
2:00 AM
Thu, Sep 29
3:00 AM
Thu, Sep 29
4:00 AM
Thu, Sep 29
5:00 AM
Thu, Sep 29
6:00 AM
Thu, Sep 29
7:00 AM
Thu, Sep 29
8:00 AM
Thu, Sep 29
9:00 AM
Thu, Sep 29
10:00 AM
Thu, Sep 29
11:00 AM
Thu, Sep 29
12:00 PM
Thu, Sep 29
1:00 PM
Thu, Sep 29
2:00 PM
Thu, Sep 29
3:00 PM
Thu, Sep 29
4:00 PM
Thu, Sep 29
5:00 PM
Thu, Sep 29
6:00 PM
Thu, Sep 29
7:00 PM
Thu, Sep 29
8:00 PM
Thu, Sep 29
9:00 PM
Thu, Sep 29
10:00 PM
Condition
Clear

Clear

Clear

Clear

Clear

Clear

Clear

Clear

Clear

Clear

Clear

Clear

Clear

Clear

Clear

Clear

Clear

Clear

Clear

Clear

Clear

Clear

Clear

Clear

Clear

Clear

Clear

Clear

Clear

Clear

Clear

Clear

Clear

Clear

Clear

Clear

Clear

Clear

Clear

Clear

Clear

Clear

Clear

Clear

Clear

Clear

Clear

Clear
Temperature 51°F52°F52°F52°F52°F51°F50°F49°F49°F54°F60°F65°F68°F70°F71°F72°F71°F70°F68°F64°F61°F59°F57°F56°F55°F54°F53°F52°F51°F50°F49°F48°F47°F51°F56°F62°F67°F70°F73°F74°F74°F74°F72°F67°F61°F59°F57°F56°F
Feels Like 49°F49°F50°F50°F49°F48°F48°F47°F46°F51°F58°F63°F65°F67°F69°F69°F69°F68°F66°F62°F58°F57°F55°F54°F52°F51°F51°F50°F49°F48°F45°F44°F43°F49°F54°F60°F65°F68°F71°F72°F72°F72°F71°F66°F59°F57°F56°F55°F
Cloudiness 0%0%0%0%0%0%0%0%0%0%0%0%0%0%0%0%0%0%0%0%0%0%0%0%0%0%0%0%0%0%0%0%0%0%0%0%0%0%0%0%0%0%0%0%0%0%0%0%
Visibility 6 mi6 mi6 mi6 mi6 mi6 mi6 mi6 mi6 mi6 mi6 mi6 mi6 mi6 mi6 mi6 mi6 mi6 mi6 mi6 mi6 mi6 mi6 mi6 mi6 mi6 mi6 mi6 mi6 mi6 mi6 mi6 mi6 mi6 mi6 mi6 mi6 mi6 mi6 mi6 mi6 mi6 mi6 mi6 mi6 mi6 mi6 mi6 mi
Precipitation 0%0%0%0%0%0%0%0%0%0%0%0%0%0%0%0%0%0%0%0%0%0%0%0%0%0%0%0%0%0%0%0%0%0%0%0%0%0%0%0%0%0%0%0%0%0%0%0%
Humidity 54%55%56%56%56%56%57%58%58%52%41%32%25%22%20%20%21%24%31%36%39%43%47%51%55%58%59%59%61%65%67%70%72%66%55%45%36%30%27%25%25%26%31%41%50%56%60%65%
Dew Point 35°F36°F37°F37°F37°F36°F35°F35°F35°F37°F36°F34°F31°F29°F28°F28°F30°F32°F36°F37°F36°F36°F37°F38°F39°F39°F39°F38°F38°F38°F38°F38°F39°F40°F40°F40°F39°F38°F37°F36°F36°F37°F40°F43°F42°F43°F44°F44°F
Pressure 30.18"30.18"30.18"30.21"30.21"30.21"30.21"30.24"30.24"30.27"30.27"30.27"30.27"30.27"30.24"30.21"30.18"30.18"30.18"30.18"30.21"30.24"30.24"30.24"30.24"30.24"30.24"30.24"30.24"30.24"30.24"30.24"30.24"30.27"30.24"30.24"30.24"30.21"30.15"30.12"30.12"30.09"30.09"30.09"30.09"30.09"30.12"30.12"
Wind Speed 5.6 mph5.5 mph6 mph6 mph6.2 mph6.1 mph5.4 mph5.6 mph5.7 mph6.6 mph9.6 mph11.1 mph14 mph13.5 mph13.5 mph13.6 mph14.2 mph14.1 mph13.2 mph12.8 mph12.6 mph12 mph11.7 mph10.4 mph10.1 mph10.8 mph11.4 mph10.6 mph9.7 mph9.1 mph8.7 mph8.7 mph8.5 mph9.3 mph10.6 mph9.6 mph9.5 mph9.9 mph10.5 mph10.3 mph10.3 mph10.2 mph9.3 mph7.1 mph6 mph6.4 mph6.7 mph6.6 mph
Wind
Direction
21°
NNE
20°
NNE
14°
NNE
12°
NNE
12°
NNE
15°
NNE
20°
NNE
15°
NNE
11°
N
10°
N
16°
NNE
19°
NNE
12°
NNE
15°
NNE
17°
NNE
18°
NNE
17°
NNE
20°
NNE
18°
NNE
21°
NNE
21°
NNE
21°
NNE
18°
NNE
22°
NNE
16°
NNE
17°
NNE
19°
NNE
26°
NNE
30°
NNE
27°
NNE
26°
NNE
23°
NNE
24°
NNE
31°
NNE
46°
NE
54°
NE
58°
ENE
57°
ENE
52°
NE
48°
NE
42°
NE
40°
NE
45°
NE
48°
NE
31°
NNE
18°
NNE
20°
NNE
21°
NNE

Daily Forecast

Date High Low Precip. Humidity
Today
Sep 27

Clear
75 °F
51 °F
0%
24%
Wednesday
Sep 28

Clear
72 °F
49 °F
0%
22%
Thursday
Sep 29

Clear
74 °F
47 °F
0%
30%
Friday
Sep 30

Clear
78 °F
49 °F
0%
30%
Saturday
Oct 1

Clouds
77 °F
52 °F
0%
46%
Sunday
Oct 2

Clouds
73 °F
55 °F
0%
59%
Monday
Oct 3

Clouds
73 °F
56 °F
0%
62%
Tuesday
Oct 4

Clear
80 °F
55 °F
0%
43%
Wednesday
Oct 5

Rain
84 °F
57 °F
28%
34%
Thursday
Oct 6

Clear
86 °F
59 °F
0%
33%
Friday
Oct 7

Clouds
88 °F
64 °F
0%
33%
Saturday
Oct 8

Clouds
83 °F
66 °F
3%
42%
Sunday
Oct 9

Clouds
74 °F
64 °F
13%
65%
Monday
Oct 10

Clouds
86 °F
64 °F
1%
40%
Tuesday
Oct 11

Clouds
87 °F
67 °F
0%
39%
Wednesday
Oct 12

Rain
85 °F
65 °F
82%
44%

Temperature 8-14 Day Outlook



Precipitation 8-14 Day Outlook






About Us
Contact Us
Site Map
Search Site
Advertise With Us
   
www.SmithLake.info
THE SMITH LAKE WEBSITE

Copyright 2022, Lakes Online
Privacy    |    Legal